Location: Dover
(39.1580°N, 75.5250°W)
Time: 02:41:19
(UTC-05:00)

SeaSat 1 - Visible Passes

Search period start: 12 February 2016 00:00
Search period end: 22 February 2016 00:00
Orbit: 745 x 748 km, 108.0° (Epoch: 10 February)

Date Brightness Start Highest point End Pass type
(mag) Time Alt. Az. Time Alt. Az. Time Alt. Az.
15 Feb 5.0 04:01:16 10° N 04:01:28 11° N 04:01:28 11° N visible
16 Feb 4.7 04:58:14 10° NNW 04:58:40 11° NNW 04:58:40 11° NNW visible
17 Feb 4.7 04:15:09 10° N 04:16:03 15° N 04:16:03 15° N visible
18 Feb 5.1 03:32:57 10° NNE 03:33:27 13° NNE 03:33:27 13° NNE visible
18 Feb 4.5 05:12:18 10° NNW 05:13:16 12° NNW 05:13:16 12° NNW visible
19 Feb 4.3 04:29:03 10° N 04:30:41 19° N 04:30:41 19° N visible
20 Feb 4.6 03:46:46 10° NNE 03:48:06 19° NNE 03:48:06 19° NNE visible
20 Feb 4.4 05:26:25 10° NNW 05:27:55 12° NW 05:27:55 12° NW visible
21 Feb 5.4 03:05:14 10° NE 03:05:32 11° NE 03:05:32 11° NE visible
21 Feb 3.9 04:42:56 10° N 04:45:22 23° NNW 04:45:22 23° NNW visible
